weather.gov     
National Weather Service

Regional Weather Roundup
NWS Homepage
This page is being discontinued on March 12, 2014.
The same data is available at this site. Please update your bookmarks.
Thank you, and we apologize for the inconvenience.
Please send an email to SR-SRH.Webmaster@noaa.gov with any concerns.


Current Version
Previous Version:    01  02  03  04  05  06  07  08  09  10  11  12  13  14  15  16  17  18  19  20  21  22  23  24  25  26  27  
[Printable]
347
ASUS44 KMOB 241010
RWRMOB
REGIONAL WEATHER ROUNDUP
NATIONAL WEATHER SERVICE MOBILE AL
500 AM CDT FRI OCT 24 2014

NOTE: "FAIR" INDICATES FEW OR NO CLOUDS BELOW 12,000 FEET WITH NO
      SIGNIFICANT WEATHER AND/OR OBSTRUCTIONS TO VISIBILITY.

  * THESE STATIONS ARE PART OF THE UNIVERSITY OF SOUTH ALABAMA
    MESONET AND ARE NOT UNDER NWS OR FAA QUALITY CONTROL.

ALZ061>064-241100-
COASTAL ALABAMA

CITY           SKY/WX    TMP DP  RH WIND       PRES   REMARKS
MOBILE REG APT PTCLDY    51  48  89 NW5       30.08R
BROOKLEY FIELD CLEAR     51  48  89 NW8       30.08R
USA CAMPUS*      N/A     50  46  87 CALM      30.09R
DOG RIVER*     NOT AVBL


CITY           SKY/WX    TMP DP  RH WIND       PRES   REMARKS
MOUNT VERNON*    N/A     45  43  93 CALM      30.09R
SARALAND*      NOT AVBL
BAY MINETTE*   NOT AVBL
LOXLEY*          N/A     52  48  87 NE2       30.07R
ROBERTSDALE*     N/A     52  48  87 N2        30.06R
FAIRHOPE*        N/A     52  48  87 NE3       30.05S
ELBERTA*         N/A     52  46  82 N3        30.05R
FOLEY*           N/A     52  46  82 CALM      30.03R
GRAND BAY*       N/A     46  46 100 CALM      30.06R
DAUPHIN ISLND* NOT AVBL
BON SCOUR NWR* NOT AVBL
GULF SHORES    CLEAR     53  46  79 N5        30.05R

$$

ALZ051>060-241100-
INTERIOR SOUTHWEST AND SOUTH CENTRAL ALABAMA

CITY           SKY/WX    TMP DP  RH WIND       PRES   REMARKS
GREENVILLE     CLEAR     50  46  86 N3        30.06R
EVERGREEN      CLEAR     49  46  90 CALM      30.06S
CASTLEBERRY*   NOT AVBL
ATMORE*          N/A     48  46  93 CALM      30.07S
DIXIE*           N/A     50  48  93 CALM      30.04R
ANDALUSIA/OPP  PTCLDY    54  46  74 CALM      30.05R
ANDALUSIA*       N/A     52  48  87 N6        30.05R
FLORALA APT    MOCLDY    54  47  77 NW3       30.06R
FLORALA*         N/A     52  46  82 CALM      30.03R

$$

FLZ001>006-241100-
WESTERN FLORIDA PANHANDLE

CITY           SKY/WX    TMP DP  RH WIND       PRES   REMARKS
PENSACOLA      CLEAR     55  47  74 N8        30.05R
NAS PENSACOLA  CLEAR     54  48  80 N7        30.05R
MILTON         PTCLDY    51  45  79 N6        30.06R
WHTNG S FIELD  PTCLDY    51  46  83 N3        30.05R


CITY           SKY/WX    TMP DP  RH WIND       PRES   REMARKS
WALNUT HILL*   NOT AVBL
JAY*             N/A     52  46  82 NW6       30.06R
DUKE FIELD     PTCLDY    49  46  90 CALM      30.04R
CRESTVIEW      PTCLDY    48  47  96 CALM      30.06R
VALPARAISO     MOCLDY    54  46  73 N5        30.04R
DESTIN         PTCLDY    60  49  66 NE5       30.03S

$$

MSZ076-079-241100-
INTERIOR SOUTHEAST MISSISSIPPI

CITY           SKY/WX    TMP DP  RH WIND       PRES   REMARKS
LEAKESVILLE*     N/A     48  45  87 CALM      30.09R
AGRICOLA*      NOT AVBL

$$

MARINE OBSERVATIONS

STATION/POSITION TIME  TEMP    WIND        PRES    WAVE
                       AIR SEA DIR/SP/G            HT/PER
                 (UTC) (F)     (DEG/KT/KT) (MB)    (FT/S)
PASCAGOULA       1000   57     360/  7/ 10 1017.9R
PETIT BOIS ISLND 1000   61      20/ 13/ 16 1018.1R
GRAND BAY        0900   54     360/  6     1018.0S
KATRINA CUT      0900   62      20/ 12     1018.0R
CEDAR POINT      0900   58     360/  7     1018.0R
E DAUPHIN ISLAND 0856   65      20/ 15/ 16 1017.7R
MIDDLE BAY LIGHT 0900   62      10/ 15     1017.3R
USCG MOBILE BAY  1000   55 74  330/  4/  5 1016.9R
STATE DOCKS      1000   56 74              1018.0R
MEAHER PARK      0900   56     340/  5     1018.3R
WEEKS BAY        0900   51                   N/A
FORT MORGAN      1000   64      40/ 15/ 17 1017.1R
12 S ORANGE BCH  1000   68 78   20/ 14/ 16 1016.7R   2/ 3
PENSACOLA BAY    1000   59 73  360/  4/  7 1017.6R
64 S DAUPHIN ISL 0928   72 78   40/  6/  8 1017.2R   3/ 7
67 S FORT MORGAN 0900   71                   N/A

$$

SELECTED LOCATIONS ACROSS THE REGION

CITY           SKY/WX    TMP DP  RH WIND       PRES   REMARKS
NEW ORLEANS    PTCLDY    61  50  67 NE8       30.08S
GULFPORT       PTCLDY    54  47  77 N5        30.08R
PASCAGOULA AP  PTCLDY    49  46  90 CALM      30.07S
PASCAGOULA*      N/A     55  46  71 N5        30.07R
HATTIESBURG    CLEAR     48  46  93 CALM      30.10R
LAUREL         CLEAR     46  43  87 CALM      30.10R
MERIDIAN       MOCLDY    49  47  93 CALM      30.09S
JACKSON        PTCLDY    44  42  93 CALM      30.12R FOG
MONTGOMERY     MOCLDY    47  44  90 CALM      30.07R
TROY           PTCLDY    45  44  97 CALM      30.06R
KINSTON*       NOT AVBL
GENEVA*          N/A     52  48  87 CALM      30.07R
ASHFORD*         N/A     52  48  87 N6        30.05R
DOTHAN         PTCLDY    51  47  86 CALM      30.07R
PANAMA CITY    CLOUDY    53  49  86 CALM      30.02R

$$





U.S. Dept. of Commerce
NOAA National Weather Service
1325 East West Highway
Silver Spring, MD 20910
E-mail: w-nws.webmaster@noaa.gov
Page last modified: May 16, 2007
NATIONAL WEATHER SERVICE: for Safety, for Work, for Fun - FOR LIFE